VE3YF Weather Reports


time (UTC)temp
F
wind
direction
speed
knots
gust
knots
rain 1hr
in
rain 24hr
in
rain mn
in
humidity
%
barometer
mb
20260504030054 48 184 1.7 7.0 0.00 0.00 0.00 64 1005.0
20260504024553 48 194 2.6 7.8 0.00 0.00 0.00 63 1005.2
20260504023059 49 186 2.6 7.8 0.00 0.00 0.00 62 1005.3
20260504021553 49 197 2.6 7.8 0.00 0.00 0.00 61 1005.4
20260504020055 49 192 1.7 7.8 0.00 0.00 0.00 60 1005.4
20260504014558 50 204 3.5 7.8 0.00 0.00 0.00 58 1005.5
20260504013113 50 201 3.5 10.4 0.00 0.00 0.00 55 1005.5
20260504011558 51 186 3.5 7.8 0.00 0.00 0.00 50 1005.5
20260504010114 51 244 2.6 7.0 0.00 0.00 0.00 47 1005.4
20260504004556 51 207 1.7 5.2 0.00 0.00 0.00 47 1005.1
20260504003058 51 0 0.0 6.1 0.00 0.00 0.00 44 1005.2
20260504001603 52 248 0.9 7.0 0.00 0.00 0.00 43 1004.9
20260504000059 52 253 2.6 7.0 0.00 0.00 0.00 41 1005.0
20260503234600 53 247 2.6 12.2 0.00 0.00 0.00 40 1005.0
20260503233102 53 281 3.5 8.7 0.00 0.00 0.00 38 1005.0
20260503231556 53 240 1.7 8.7 0.00 0.00 0.00 37 1004.8
20260503230055 54 182 1.7 10.4 0.00 0.00 0.00 36 1004.9
20260503224556 54 216 5.2 10.4 0.00 0.00 0.00 35 1004.9
20260503223058 55 248 3.5 8.7 0.00 0.00 0.00 33 1004.8
20260503221607 56 263 6.1 11.3 0.00 0.00 0.00 31 1004.6
20260503220105 56 202 5.2 13.0 0.00 0.00 0.00 30 1004.6
20260503214558 57 298 1.7 8.7 0.00 0.00 0.00 29 1004.5
20260503213059 57 234 4.3 10.4 0.00 0.00 0.00 28 1004.5
20260503211555 57 262 7.0 13.9 0.00 0.00 0.00 27 1004.6
20260503210056 58 163 1.7 12.2 0.00 0.00 0.00 27 1004.6
20260503204606 57 235 5.2 12.2 0.00 0.00 0.00 26 1004.8
20260503203105 57 248 4.3 11.3 0.00 0.00 0.00 26 1004.9
20260503201554 58 295 5.2 13.9 0.00 0.00 0.00 25 1005.2
20260503200055 57 244 3.5 13.0 0.00 0.00 0.00 26 1005.3
20260503194622 57 300 4.3 10.4 0.00 0.00 0.00 25 1005.7
20260503193103 57 240 4.3 12.2 0.00 0.00 0.00 25 1005.9
20260503191601 57 206 5.2 16.5 0.00 0.00 0.00 25 1006.1
20260503184557 56 292 3.5 16.5 0.00 0.00 0.00 27 1006.5
20260503183104 56 254 6.1 10.4 0.00 0.00 0.00 26 1006.7
20260503181553 57 188 5.2 13.9 0.00 0.00 0.00 25 1006.9
20260503180105 55 188 6.1 13.0 0.00 0.00 0.00 25 1007.1
20260503174554 56 279 3.5 8.7 0.00 0.00 0.00 26 1007.2
20260503173147 55 244 4.3 11.3 0.00 0.00 0.00 27 1007.4
20260503171553 54 281 2.6 13.0 0.00 0.00 0.00 27 1007.6
20260503130104 43 213 1.7 4.3 0.00 0.00 0.00 51 1010.7
20260503100113 28 0 0.0 0.0 0.00 0.00 0.00 83 1010.8
20260503090104 30 0 0.0 0.0 0.00 0.00 0.00 78 1011.0
20260503081600 33 0 0.0 0.0 0.00 0.00 0.00 73 1011.2
20260503071558 37 209 0.9 2.6 0.00 0.00 0.00 67 1011.2
20260503070107 37 0 0.0 2.6 0.00 0.00 0.00 67 1011.2
20260503054556 37 209 0.0 1.7 0.00 0.00 0.00 71 1011.5
20260503053056 37 0 0.0 0.0 0.00 0.00 0.00 72 1011.6
20260503051555 37 0 0.0 0.0 0.00 0.00 0.00 72 1011.8
20260503050058 37 0 0.0 0.0 0.00 0.00 0.00 71 1011.9
20260503044557 37 0 0.0 0.0 0.00 0.00 0.00 71 1012.0
20260503043101 37 0 0.0 0.0 0.00 0.00 0.00 70 1012.1
20260503041553 38 0 0.0 0.0 0.00 0.00 0.00 69 1012.0
20260503040056 38 0 0.0 0.0 0.00 0.00 0.00 66 1012.2
20260503034555 38 0 0.0 0.0 0.00 0.00 0.00 65 1012.1
20260503033055 38 0 0.0 0.0 0.00 0.00 0.00 64 1012.2
20260503031607 39 0 0.0 0.0 0.00 0.00 0.00 63 1012.3